Location: Ferma
(41.9500°N, 44.5167°E)
Time: 10:52:55
(UTC+00:00)

Cosmos 1269 Rocket - Pass Details

Date: 02 June 2022
Orbit: 773 x 778 km, 74.1° (Epoch: 01 July)

Event Time Altitude Azimuth Distance (km) Brightness Sun altitude
Rises 21:51:14 0° 333° (NNW) 3,257 8.0 -24.7°
Reaches altitude 10° 21:53:42 10° 328° (NNW) 2,326 7.0 -24.6°
Enters shadow 21:58:33 44° 261° (W) 1,063 4.5 -24.4°
